TimeEDT,TemperatureF,Dew PointF,Humidity,Sea Level PressureIn,VisibilityMPH,Wind Direction,Wind SpeedMPH,Gust SpeedMPH,PrecipitationIn,Events,Conditions,WindDirDegrees,DateUTC
12:06 AM,37.4,37.4,100,30.21,1.2,ENE,3.5,-,N/A,,Partly Cloudy,70,2011-11-01 04:06:00
12:13 AM,37.4,35.6,93,30.21,0.2,East,3.5,-,N/A,Fog,Fog,80,2011-11-01 04:13:00
12:21 AM,37.4,37.4,100,30.21,0.8,East,3.5,-,N/A,,Mist,90,2011-11-01 04:21:00
12:29 AM,37.4,37.4,100,30.21,1.2,East,3.5,-,N/A,,Partly Cloudy,90,2011-11-01 04:29:00
12:45 AM,37.4,37.4,100,30.20,3.0,East,3.5,-,N/A,,Clear,100,2011-11-01 04:45:00
12:51 AM,37.9,37.9,100,30.21,4.0,East,3.5,-,N/A,,Clear,80,2011-11-01 04:51:00
12:55 AM,37.4,37.4,100,30.20,1.8,East,3.5,-,N/A,,Clear,80,2011-11-01 04:55:00
1:02 AM,35.6,35.6,100,30.21,0.2,ENE,3.5,-,N/A,Fog,Fog,70,2011-11-01 05:02:00
1:19 AM,37.4,37.4,100,30.21,0.8,Calm,Calm,-,N/A,,Mist,0,2011-11-01 05:19:00
1:21 AM,37.4,37.4,100,30.21,1.2,Calm,Calm,-,N/A,,Partly Cloudy,0,2011-11-01 05:21:00
1:26 AM,37.4,37.4,100,30.21,3.0,Calm,Calm,-,N/A,,Partly Cloudy,0,2011-11-01 05:26:00
1:49 AM,35.6,35.6,100,30.21,1.8,East,3.5,-,N/A,,Clear,80,2011-11-01 05:49:00
1:51 AM,36.0,36.0,100,30.22,0.8,East,3.5,-,N/A,,Mist,80,2011-11-01 05:51:00
2:05 AM,35.6,35.6,100,30.22,1.2,ESE,3.5,-,N/A,,Partly Cloudy,110,2011-11-01 06:05:00
2:09 AM,35.6,35.6,100,30.22,3.0,Calm,Calm,-,N/A,,Partly Cloudy,0,2011-11-01 06:09:00
2:30 AM,35.6,33.8,93,30.22,1.8,East,3.5,-,N/A,,Clear,90,2011-11-01 06:30:00
2:51 AM,33.1,33.1,100,30.22,4.0,East,4.6,-,N/A,,Clear,100,2011-11-01 06:51:00
3:51 AM,33.1,33.1,100,30.23,4.0,East,3.5,-,N/A,,Clear,100,2011-11-01 07:51:00
4:51 AM,32.0,32.0,100,30.24,4.0,Calm,Calm,-,N/A,,Clear,0,2011-11-01 08:51:00
5:26 AM,32.0,30.2,93,30.24,2.5,Calm,Calm,-,N/A,,Clear,0,2011-11-01 09:26:00
5:35 AM,30.2,30.2,100,30.24,4.0,East,3.5,-,N/A,,Clear,100,2011-11-01 09:35:00
5:51 AM,30.9,30.0,96,30.25,3.0,East,3.5,-,N/A,,Clear,100,2011-11-01 09:51:00
5:55 AM,30.2,30.2,100,30.24,1.8,East,3.5,-,N/A,,Clear,100,2011-11-01 09:55:00
6:02 AM,30.2,30.2,100,30.24,4.0,East,3.5,-,N/A,,Clear,100,2011-11-01 10:02:00
6:26 AM,30.2,30.2,100,30.24,4.0,East,3.5,-,N/A,,Scattered Clouds,90,2011-11-01 10:26:00
6:51 AM,30.2,30.2,100,30.24,4.0,ESE,4.6,-,N/A,,Partly Cloudy,110,2011-11-01 10:51:00
7:51 AM,30.0,30.0,100,30.29,4.0,Calm,Calm,-,N/A,,Clear,0,2011-11-01 11:51:00
8:51 AM,32.0,32.0,100,30.32,4.0,Calm,Calm,-,N/A,,Clear,0,2011-11-01 12:51:00
9:51 AM,37.9,37.9,100,30.33,4.0,Calm,Calm,-,0.01,,Clear,0,2011-11-01 13:51:00
10:51 AM,45.0,39.0,80,30.34,10.0,SW,4.6,-,N/A,,Clear,220,2011-11-01 14:51:00
11:51 AM,51.1,39.9,66,30.34,10.0,SSW,4.6,-,N/A,,Clear,210,2011-11-01 15:51:00
12:51 PM,57.0,37.9,49,30.32,10.0,Calm,Calm,-,N/A,,Clear,0,2011-11-01 16:51:00
1:51 PM,57.9,34.0,41,30.30,10.0,SSE,5.8,-,N/A,,Clear,150,2011-11-01 17:51:00
2:51 PM,60.1,33.1,36,30.28,10.0,Variable,5.8,-,N/A,,Clear,0,2011-11-01 18:51:00
3:51 PM,61.0,32.0,34,30.27,10.0,Calm,Calm,-,N/A,,Clear,0,2011-11-01 19:51:00
4:51 PM,61.0,33.1,35,30.27,10.0,Calm,Calm,-,N/A,,Clear,0,2011-11-01 20:51:00
5:51 PM,60.1,32.0,35,30.27,10.0,Calm,Calm,-,N/A,,Clear,0,2011-11-01 21:51:00
6:51 PM,55.9,30.9,39,30.28,10.0,SE,3.5,-,N/A,,Clear,130,2011-11-01 22:51:00
7:51 PM,53.1,30.9,43,30.29,10.0,ESE,3.5,-,N/A,,Clear,120,2011-11-01 23:51:00
8:51 PM,48.9,35.1,59,30.29,10.0,Calm,Calm,-,N/A,,Clear,0,2011-11-02 00:51:00
9:51 PM,45.0,35.1,68,30.29,10.0,Calm,Calm,-,N/A,,Clear,0,2011-11-02 01:51:00
10:51 PM,44.1,36.0,73,30.30,10.0,East,3.5,-,N/A,,Clear,100,2011-11-02 02:51:00
11:51 PM,39.2,35.6,87,30.28,10.0,Calm,Calm,-,N/A,,Clear,0,2011-11-02 03:51:00